Location: Arran
(51.9410°N, 101.7372°W)
Time: 07:44:27
(UTC+00:00)

SWISSCUBE - Pass Details

Date: 15 May 2025
Orbit: 685 x 693 km, 98.4° (Epoch: 20 June)

Event Time Altitude Azimuth Distance (km) Brightness Sun altitude
Rises 07:33:29 0° 4° (N) 3,075 ? -18.3°
Reaches altitude 10° 07:36:27 10° 344° (NNW) 2,155 ? -18.2°
Maximum altitude 07:39:20 16° 306° (NW) 1,758 ? -18.1°
Drops below altitude 10° 07:42:13 10° 268° (W) 2,150 ? -17.9°
Enters shadow 07:43:12 - 260° (W) 2,415 ? -17.9°
